Flag for Kazakhstan Weather past 2 weeks in Astana, Kazakhstan

Now
57 °F

Broken clouds.


Feels Like: 55 °F
Forecast: 39 / 57 °F
Wind: 10 mph from North

Location: Astana

Current Time: May 23, 2015 at 3:23:09 PM

Latest Report: May 23, 2015 at 3:00 PM


Visibility: N/A

Pressure: 29.83 "Hg

Humidity: 67%

Dew point: 46 °F

Location of AstanaLocation

Historic Weather in Astana — Graph

°F

Astana temperature yesterday

Maximum temperature yesterday: 61 °F (at 1:00 PM)
Minimum temperature yesterday: 46 °F (at 5:30 AM)
Average temperature yesterday: 53 °F

Past Weeks' High & Low Weather Summary

 TemperatureHumidityPressure
High82 °F (May 8, 3:00 PM)100% (May 19, 12:00 AM)30.21 "Hg (May 19, 12:00 AM)
Low39 °F (May 13, 4:00 AM)30% (May 8, 3:00 PM)29.36 "Hg (May 16, 10:30 PM)
Average57 °F71%29.83 "Hg
* Reported May 8 2:00 PM — May 23 2:00 PM, Astana, Weather by CustomWeather, © 2015

Note: Actual official high and low records may vary slightly from our data, if they occured in-between our weather recording intervals... More about our weather records

Advertising

Astana weather history for previous 24 hours

 ConditionsComfort  
Time TempWeatherWind HumidityBarometerVisibility
2:00 PM
Sat, May 23
59 °FBroken clouds.8 mph59%29.83 "HgN/A
1:30 PM59 °FPartly sunny.6 mph45%29.83 "HgN/A
1:00 PM61 °FPartly sunny.8 mph42%29.80 "HgN/A
12:30 PM61 °FPartly sunny.3 mph45%29.80 "HgN/A
11:30 AM59 °FBroken clouds.3 mph55%29.80 "HgN/A
11:00 AM59 °FBroken clouds.6 mph59%29.83 "HgN/A
10:30 AM57 °FScattered clouds.6 mph59%29.83 "HgN/A
10:00 AM57 °FScattered clouds.8 mph63%29.80 "HgN/A
9:30 AM57 °FScattered clouds.8 mph63%29.80 "HgN/A
8:30 AM54 °FPassing clouds.6 mph82%29.80 "HgN/A
8:00 AM52 °FScattered clouds.6 mph88%29.80 "HgN/A
7:30 AM52 °FSunny.3 mph88%29.80 "Hg10 mi
7:00 AM50 °FSunny.3 mph94%29.80 "Hg10 mi
6:30 AM45 °FSunny.6 mph87%29.77 "Hg10 mi
6:00 AM45 °FClear.6 mph93%29.77 "Hg10 mi
5:30 AM45 °FClear.6 mph93%29.77 "Hg10 mi
5:00 AM45 °FClear.3 mph93%29.77 "Hg10 mi
4:30 AM46 °FClear.3 mph93%29.77 "Hg10 mi
4:00 AM46 °FClear.3 mph93%29.77 "Hg10 mi
3:30 AM46 °FClear.6 mph93%29.77 "Hg10 mi
3:00 AM46 °FClear.6 mph93%29.77 "Hg10 mi
2:30 AM50 °FPartly cloudy.8 mph88%29.77 "HgN/A
2:00 AM50 °FPartly cloudy.6 mph88%29.77 "HgN/A
1:30 AM50 °FPartly cloudy.3 mph88%29.77 "HgN/A
1:00 AM52 °FPartly cloudy.3 mph82%29.77 "HgN/A
12:30 AM52 °FClear.1 mph82%29.77 "Hg10 mi
12:00 AM52 °FClear.1 mph82%29.77 "Hg10 mi
11:30 PM
Fri, May 22
52 °FPassing clouds.3 mph82%29.77 "HgN/A
11:00 PM52 °FPartly cloudy.1 mph82%29.77 "HgN/A
10:30 PM50 °FPartly cloudy.3 mph88%29.77 "HgN/A
10:00 PM52 °FBroken clouds.3 mph82%29.77 "HgN/A
9:30 PM50 °FBroken clouds.3 mph82%29.74 "HgN/A
9:00 PM54 °FBroken clouds.3 mph72%29.74 "HgN/A
8:30 PM55 °FBroken clouds.3 mph67%29.74 "HgN/A
8:00 PM57 °FBroken clouds.6 mph59%29.74 "HgN/A
7:30 PM57 °FBroken clouds.8 mph67%29.74 "HgN/A
7:00 PM57 °FBroken clouds.8 mph67%29.74 "HgN/A
6:30 PM57 °FBroken clouds.13 mph67%29.74 "HgN/A
6:00 PM54 °FSprinkles. Broken clouds.10 mph72%29.74 "HgN/A
5:30 PM54 °FSprinkles. Broken clouds.15 mph77%29.74 "HgN/A
5:00 PM61 °FPartly sunny.8 mph59%29.74 "HgN/A
4:30 PM59 °FPartly sunny.8 mph59%29.74 "HgN/A
4:00 PM55 °FPartly sunny.8 mph72%29.74 "HgN/A
3:30 PM55 °FSprinkles. Partly sunny.10 mph72%29.74 "HgN/A
3:00 PM55 °FPartly sunny.6 mph72%29.74 "HgN/A
Weather by CustomWeather, © 2015

See weather overviewHow to use our weather pages